| time (UTC) | temp C | wind direction | speed KPH | gust KPH | rain 1hr cm | rain 24hr cm | rain mn cm | humidity % | barometer mb |
| 20260510193112 | 22 | 53 | 1.6 | 3.2 | 0.00 | 0.00 | 0.00 | 70 | 3409.7 |
| 20260510192607 | 22 | 335 | 4.8 | 8.0 | 0.00 | 0.00 | 0.00 | 69 | 3409.5 |
| 20260510192103 | 22 | 47 | 1.6 | 3.2 | 0.00 | 0.00 | 0.00 | 70 | 3409.5 |
| 20260510191600 | 22 | 29 | 4.8 | 4.8 | 0.00 | 0.00 | 0.00 | 69 | 3409.7 |
| 20260510191056 | 22 | 23 | 1.6 | 3.2 | 0.00 | 0.00 | 0.00 | 69 | 3409.3 |
| 20260510190554 | 22 | 304 | 1.6 | 3.2 | 0.00 | 0.00 | 0.00 | 70 | 3409.2 |
| 20260510190052 | 22 | 278 | 1.6 | 3.2 | 0.00 | 0.00 | 0.00 | 69 | 3409.2 |
| 20260510185548 | 22 | 28 | 1.6 | 3.2 | 0.00 | 0.00 | 0.00 | 69 | 3409.3 |
| 20260510185045 | 22 | 35 | 1.6 | 4.8 | 0.00 | 0.00 | 0.00 | 69 | 3409.1 |
| 20260510184543 | 23 | 170 | 3.2 | 4.8 | 0.00 | 0.00 | 0.00 | 67 | 3409.1 |
| 20260510184038 | 23 | 57 | 1.6 | 3.2 | 0.00 | 0.00 | 0.00 | 67 | 3409.0 |
| 20260510183533 | 23 | 57 | 0.0 | 3.2 | 0.00 | 0.00 | 0.00 | 66 | 3409.0 |
| 20260510183028 | 23 | 110 | 3.2 | 3.2 | 0.00 | 0.00 | 0.00 | 68 | 3409.0 |
| 20260510182526 | 24 | 309 | 9.7 | 17.7 | 0.00 | 0.00 | 0.00 | 65 | 3409.0 |
| 20260510182021 | 24 | 26 | 1.6 | 3.2 | 0.00 | 0.00 | 0.00 | 65 | 3408.9 |
| 20260510181519 | 24 | 293 | 6.4 | 11.3 | 0.00 | 0.00 | 0.00 | 64 | 3409.0 |
| 20260510181014 | 23 | 92 | 1.6 | 3.2 | 0.00 | 0.00 | 0.00 | 66 | 3409.3 |
| 20260510180512 | 24 | 299 | 9.7 | 17.7 | 0.00 | 0.00 | 0.00 | 63 | 3409.2 |
| 20260510180010 | 23 | 32 | 0.0 | 3.2 | 0.00 | 0.00 | 0.00 | 65 | 3409.4 |
| 20260510175504 | 24 | 318 | 9.7 | 11.3 | 0.00 | 0.00 | 0.00 | 63 | 3409.2 |
| 20260510175001 | 23 | 336 | 3.2 | 4.8 | 0.00 | 0.00 | 0.00 | 66 | 3409.2 |
| 20260510174459 | 24 | 334 | 3.2 | 8.0 | 0.00 | 0.00 | 0.00 | 64 | 3409.3 |
| 20260510173955 | 24 | 125 | 1.6 | 3.2 | 0.00 | 0.00 | 0.00 | 65 | 3409.2 |
| 20260510173451 | 23 | 42 | 0.0 | 3.2 | 0.00 | 0.00 | 0.00 | 65 | 3409.4 |
| 20260510172948 | 24 | 9 | 6.4 | 8.0 | 0.00 | 0.00 | 0.00 | 65 | 3409.3 |
| 20260510172443 | 24 | 312 | 3.2 | 4.8 | 0.00 | 0.00 | 0.00 | 63 | 3409.5 |
| 20260510171940 | 24 | 139 | 1.6 | 3.2 | 0.00 | 0.00 | 0.00 | 66 | 3409.5 |
| 20260510171437 | 23 | 27 | 0.0 | 3.2 | 0.00 | 0.00 | 0.00 | 66 | 3409.4 |
| 20260510170934 | 23 | 290 | 4.8 | 4.8 | 0.00 | 0.00 | 0.00 | 64 | 3409.2 |
| 20260510170430 | 24 | 344 | 6.4 | 8.0 | 0.00 | 0.00 | 0.00 | 64 | 3409.3 |
| 20260510165926 | 23 | 150 | 0.0 | 0.0 | 0.00 | 0.00 | 0.00 | 70 | 3409.3 |
| 20260510165422 | 23 | 151 | 0.0 | 0.0 | 0.00 | 0.00 | 0.00 | 67 | 3409.3 |
| 20260510164919 | 23 | 281 | 8.0 | 11.3 | 0.00 | 0.00 | 0.00 | 64 | 3409.7 |
| 20260510164416 | 23 | 20 | 1.6 | 3.2 | 0.00 | 0.00 | 0.00 | 66 | 3409.6 |
| 20260510163911 | 23 | 2 | 4.8 | 8.0 | 0.00 | 0.00 | 0.00 | 64 | 3409.5 |
| 20260510163408 | 23 | 317 | 4.8 | 8.0 | 0.00 | 0.00 | 0.00 | 65 | 3409.5 |
| 20260510162907 | 23 | 309 | 4.8 | 4.8 | 0.00 | 0.00 | 0.00 | 65 | 3409.8 |
| 20260510162405 | 23 | 343 | 4.8 | 4.8 | 0.00 | 0.00 | 0.00 | 66 | 3409.4 |
| 20260510161901 | 23 | 13 | 0.0 | 3.2 | 0.00 | 0.00 | 0.00 | 64 | 3409.3 |
| 20260510161356 | 23 | 16 | 3.2 | 4.8 | 0.00 | 0.00 | 0.00 | 65 | 3409.4 |
| 20260510160853 | 22 | 319 | 6.4 | 8.0 | 0.00 | 0.00 | 0.00 | 66 | 3409.2 |
| 20260510160351 | 22 | 277 | 8.0 | 11.3 | 0.00 | 0.00 | 0.00 | 66 | 3409.1 |
| 20260510155844 | 22 | 333 | 4.8 | 4.8 | 0.00 | 0.00 | 0.00 | 67 | 3409.5 |
| 20260510155341 | 22 | 329 | 3.2 | 4.8 | 0.00 | 0.00 | 0.00 | 67 | 3409.3 |
| 20260510154837 | 22 | 27 | 1.6 | 3.2 | 0.00 | 0.00 | 0.00 | 68 | 3409.1 |
| 20260510154333 | 22 | 299 | 4.8 | 8.0 | 0.00 | 0.00 | 0.00 | 69 | 3409.0 |
| 20260510153827 | 21 | 37 | 0.0 | 3.2 | 0.00 | 0.00 | 0.00 | 71 | 3408.7 |
| 20260510153323 | 21 | 300 | 4.8 | 8.0 | 0.00 | 0.00 | 0.00 | 71 | 3409.0 |
| 20260510152815 | 21 | 103 | 0.0 | 0.0 | 0.00 | 0.00 | 0.00 | 73 | 3408.8 |
| 20260510152312 | 21 | 19 | 3.2 | 3.2 | 0.00 | 0.00 | 0.00 | 75 | 3408.9 |
| 20260510151808 | 21 | 127 | 0.0 | 0.0 | 0.00 | 0.00 | 0.00 | 76 | 3408.5 |
| 20260510151306 | 21 | 352 | 0.0 | 3.2 | 0.00 | 0.00 | 0.00 | 76 | 3408.9 |
| 20260510150802 | 20 | 14 | 0.0 | 0.0 | 0.00 | 0.00 | 0.00 | 76 | 3408.7 |
| 20260510150258 | 20 | 40 | 1.6 | 4.8 | 0.00 | 0.00 | 0.00 | 75 | 3408.9 |
| 20260510145754 | 20 | 45 | 0.0 | 3.2 | 0.00 | 0.00 | 0.00 | 77 | 3408.7 |
| 20260510145251 | 20 | 327 | 3.2 | 4.8 | 0.00 | 0.00 | 0.00 | 75 | 3408.7 |
| 20260510144747 | 20 | 173 | 0.0 | 0.0 | 0.00 | 0.00 | 0.00 | 76 | 3408.5 |
| 20260510144244 | 19 | 251 | 0.0 | 0.0 | 0.00 | 0.00 | 0.00 | 77 | 3408.6 |
| 20260510143737 | 19 | 253 | 4.8 | 4.8 | 0.00 | 0.00 | 0.00 | 77 | 3408.5 |
| 20260510143234 | 18 | 83 | 0.0 | 0.0 | 0.00 | 0.00 | 0.00 | 78 | 3408.6 |
| 20260510142731 | 18 | 355 | 1.6 | 3.2 | 0.00 | 0.00 | 0.00 | 77 | 3408.5 |
| 20260510142228 | 18 | 1 | 0.0 | 0.0 | 0.00 | 0.00 | 0.00 | 78 | 3408.5 |
| 20260510141725 | 18 | 340 | 3.2 | 4.8 | 0.00 | 0.00 | 0.00 | 77 | 3408.4 |
| 20260510141223 | 18 | 358 | 0.0 | 3.2 | 0.00 | 0.00 | 0.00 | 78 | 3408.4 |
| 20260510140719 | 18 | 327 | 0.0 | 3.2 | 0.00 | 0.00 | 0.00 | 78 | 3408.5 |
| 20260510140220 | 18 | 72 | 0.0 | 0.0 | 0.00 | 0.00 | 0.00 | 80 | 3408.5 |
| 20260510135714 | 18 | 45 | 0.0 | 0.0 | 0.00 | 0.00 | 0.00 | 79 | 3408.4 |
| 20260510135210 | 18 | 29 | 0.0 | 0.0 | 0.00 | 0.00 | 0.00 | 79 | 3408.5 |
| 20260510134708 | 18 | 30 | 0.0 | 0.0 | 0.00 | 0.00 | 0.00 | 79 | 3408.4 |
| 20260510134205 | 18 | 323 | 6.4 | 8.0 | 0.00 | 0.00 | 0.00 | 79 | 3408.5 |
| 20260510133701 | 18 | 357 | 0.0 | 3.2 | 0.00 | 0.00 | 0.00 | 79 | 3408.2 |
| 20260510133156 | 18 | 74 | 0.0 | 3.2 | 0.00 | 0.00 | 0.00 | 79 | 3408.2 |
| 20260510132653 | 18 | 320 | 8.0 | 8.0 | 0.00 | 0.00 | 0.00 | 77 | 3408.4 |
| 20260510132150 | 18 | 309 | 8.0 | 11.3 | 0.00 | 0.00 | 0.00 | 77 | 3408.3 |
| 20260510131648 | 18 | 58 | 0.0 | 0.0 | 0.00 | 0.00 | 0.00 | 79 | 3408.3 |
| 20260510131145 | 17 | 348 | 3.2 | 4.8 | 0.00 | 0.00 | 0.00 | 81 | 3408.2 |
| 20260510130641 | 17 | 28 | 3.2 | 4.8 | 0.00 | 0.00 | 0.00 | 82 | 3408.0 |
| 20260510130139 | 17 | 328 | 3.2 | 4.8 | 0.00 | 0.00 | 0.00 | 83 | 3407.9 |
| 20260510125635 | 16 | 127 | 0.0 | 0.0 | 0.00 | 0.00 | 0.00 | 84 | 3407.7 |
| 20260510125131 | 16 | 119 | 0.0 | 3.2 | 0.00 | 0.00 | 0.00 | 85 | 3407.7 |
| 20260510124628 | 16 | 103 | 0.0 | 0.0 | 0.00 | 0.00 | 0.00 | 87 | 3407.6 |
| 20260510124125 | 15 | 102 | 0.0 | 0.0 | 0.00 | 0.00 | 0.00 | 87 | 3407.5 |
| 20260510123620 | 15 | 102 | 0.0 | 0.0 | 0.00 | 0.00 | 0.00 | 88 | 3407.6 |
| 20260510123117 | 15 | 102 | 0.0 | 0.0 | 0.00 | 0.00 | 0.00 | 89 | 3407.2 |
| 20260510122613 | 15 | 102 | 0.0 | 0.0 | 0.00 | 0.00 | 0.00 | 89 | 3407.5 |
| 20260510122109 | 15 | 102 | 0.0 | 0.0 | 0.00 | 0.00 | 0.00 | 87 | 3407.3 |
| 20260510121606 | 15 | 102 | 0.0 | 0.0 | 0.00 | 0.00 | 0.00 | 87 | 3407.1 |
| 20260510121103 | 15 | 102 | 0.0 | 0.0 | 0.00 | 0.00 | 0.00 | 87 | 3407.1 |
| 20260510120601 | 15 | 102 | 0.0 | 0.0 | 0.00 | 0.00 | 0.00 | 87 | 3406.9 |
| 20260510120056 | 15 | 102 | 0.0 | 0.0 | 0.00 | 0.00 | 0.00 | 87 | 3406.8 |
| 20260510115553 | 15 | 102 | 0.0 | 0.0 | 0.00 | 0.00 | 0.00 | 88 | 3406.9 |
| 20260510115050 | 15 | 102 | 0.0 | 0.0 | 0.00 | 0.00 | 0.00 | 88 | 3406.9 |
| 20260510114546 | 14 | 102 | 0.0 | 0.0 | 0.00 | 0.00 | 0.00 | 88 | 3406.6 |
| 20260510114042 | 14 | 100 | 0.0 | 3.2 | 0.00 | 0.00 | 0.00 | 89 | 3406.6 |
| 20260510113537 | 14 | 101 | 0.0 | 0.0 | 0.00 | 0.00 | 0.00 | 90 | 3406.4 |
| 20260510113035 | 14 | 101 | 0.0 | 0.0 | 0.00 | 0.00 | 0.00 | 90 | 3406.3 |
| 20260510112531 | 14 | 101 | 0.0 | 0.0 | 0.00 | 0.00 | 0.00 | 89 | 3406.4 |
| 20260510112028 | 14 | 101 | 0.0 | 0.0 | 0.00 | 0.00 | 0.00 | 89 | 3406.4 |
| 20260510111525 | 13 | 101 | 0.0 | 0.0 | 0.00 | 0.00 | 0.00 | 88 | 3406.3 |
| 20260510111021 | 13 | 101 | 0.0 | 0.0 | 0.00 | 0.00 | 0.00 | 89 | 3406.3 |
| 20260510110517 | 13 | 101 | 0.0 | 0.0 | 0.00 | 0.00 | 0.00 | 89 | 3406.4 |
| 20260510110014 | 13 | 102 | 0.0 | 0.0 | 0.00 | 0.00 | 0.00 | 89 | 3406.2 |
| 20260510105508 | 13 | 79 | 0.0 | 0.0 | 0.00 | 0.00 | 0.00 | 90 | 3406.5 |
| 20260510105004 | 13 | 73 | 0.0 | 3.2 | 0.00 | 0.00 | 0.00 | 91 | 3406.0 |
| 20260510104501 | 13 | 74 | 0.0 | 0.0 | 0.00 | 0.00 | 0.00 | 91 | 3406.0 |
| 20260510103957 | 13 | 74 | 0.0 | 0.0 | 0.00 | 0.00 | 0.00 | 90 | 3406.4 |
| 20260510103454 | 13 | 74 | 0.0 | 0.0 | 0.00 | 0.00 | 0.00 | 90 | 3406.4 |
| 20260510102950 | 13 | 74 | 0.0 | 0.0 | 0.00 | 0.00 | 0.00 | 90 | 3406.4 |
| 20260510102446 | 13 | 74 | 0.0 | 0.0 | 0.00 | 0.00 | 0.00 | 89 | 3406.6 |
| 20260510101942 | 13 | 74 | 0.0 | 0.0 | 0.00 | 0.00 | 0.00 | 89 | 3406.3 |
| 20260510101440 | 13 | 74 | 0.0 | 0.0 | 0.00 | 0.00 | 0.00 | 88 | 3406.2 |
| 20260510100939 | 13 | 74 | 0.0 | 0.0 | 0.00 | 0.00 | 0.00 | 87 | 3406.0 |
| 20260510100434 | 14 | 74 | 0.0 | 0.0 | 0.00 | 0.00 | 0.00 | 86 | 3406.1 |
| 20260510095931 | 14 | 74 | 0.0 | 0.0 | 0.00 | 0.00 | 0.00 | 85 | 3406.0 |
| 20260510095427 | 15 | 74 | 0.0 | 0.0 | 0.00 | 0.00 | 0.00 | 85 | 3406.2 |
| 20260510094926 | 15 | 74 | 0.0 | 0.0 | 0.00 | 0.00 | 0.00 | 84 | 3406.1 |
| 20260510094421 | 15 | 74 | 0.0 | 0.0 | 0.00 | 0.00 | 0.00 | 83 | 3405.9 |
| 20260510093917 | 15 | 75 | 0.0 | 0.0 | 0.00 | 0.00 | 0.00 | 82 | 3406.0 |
| 20260510093413 | 15 | 75 | 0.0 | 0.0 | 0.00 | 0.00 | 0.00 | 82 | 3406.0 |
| 20260510092909 | 15 | 74 | 0.0 | 0.0 | 0.00 | 0.00 | 0.00 | 80 | 3406.0 |
| 20260510092407 | 16 | 74 | 0.0 | 0.0 | 0.00 | 0.00 | 0.00 | 80 | 3406.1 |
| 20260510091901 | 16 | 11 | 1.6 | 4.8 | 0.00 | 0.00 | 0.00 | 80 | 3406.0 |
| 20260510091358 | 15 | 72 | 1.6 | 3.2 | 0.00 | 0.00 | 0.00 | 81 | 3405.8 |
| 20260510090855 | 14 | 144 | 0.0 | 3.2 | 0.00 | 0.00 | 0.00 | 86 | 3405.8 |
| 20260510090351 | 12 | 319 | 11.3 | 12.9 | 0.00 | 0.00 | 0.00 | 92 | 3406.2 |
| 20260510085847 | 12 | 79 | 0.0 | 0.0 | 0.00 | 0.00 | 0.00 | 92 | 3405.4 |
| 20260510085342 | 12 | 79 | 0.0 | 0.0 | 0.00 | 0.00 | 0.00 | 92 | 3405.3 |
| 20260510084838 | 12 | 79 | 0.0 | 0.0 | 0.00 | 0.00 | 0.00 | 92 | 3405.2 |
| 20260510084335 | 12 | 79 | 0.0 | 0.0 | 0.00 | 0.00 | 0.00 | 92 | 3405.2 |
| 20260510083832 | 12 | 79 | 0.0 | 0.0 | 0.00 | 0.00 | 0.00 | 92 | 3405.1 |
| 20260510083329 | 12 | 79 | 0.0 | 0.0 | 0.00 | 0.00 | 0.00 | 93 | 3405.2 |
| 20260510082824 | 12 | 79 | 0.0 | 0.0 | 0.00 | 0.00 | 0.00 | 93 | 3404.9 |
| 20260510082322 | 12 | 78 | 0.0 | 0.0 | 0.00 | 0.00 | 0.00 | 93 | 3404.9 |
| 20260510081820 | 12 | 79 | 0.0 | 0.0 | 0.00 | 0.00 | 0.00 | 92 | 3404.8 |
| 20260510081317 | 12 | 79 | 0.0 | 0.0 | 0.00 | 0.00 | 0.00 | 92 | 3404.9 |
| 20260510080812 | 13 | 79 | 0.0 | 0.0 | 0.00 | 0.00 | 0.00 | 92 | 3404.8 |
| 20260510080308 | 13 | 79 | 0.0 | 0.0 | 0.00 | 0.00 | 0.00 | 92 | 3404.8 |
| 20260510075805 | 13 | 79 | 0.0 | 0.0 | 0.00 | 0.00 | 0.00 | 92 | 3404.8 |
| 20260510075306 | 13 | 79 | 0.0 | 0.0 | 0.00 | 0.00 | 0.00 | 92 | 3405.0 |
| 20260510074759 | 13 | 79 | 0.0 | 0.0 | 0.00 | 0.00 | 0.00 | 92 | 3404.9 |
| 20260510074256 | 13 | 78 | 0.0 | 0.0 | 0.00 | 0.00 | 0.00 | 92 | 3404.8 |
| 20260510073752 | 13 | 78 | 0.0 | 0.0 | 0.00 | 0.00 | 0.00 | 92 | 3404.9 |
| 20260510073248 | 13 | 78 | 0.0 | 0.0 | 0.00 | 0.00 | 0.00 | 92 | 3404.8 |
| 20260510072744 | 13 | 78 | 0.0 | 0.0 | 0.00 | 0.00 | 0.00 | 92 | 3404.8 |
| 20260510072240 | 13 | 79 | 0.0 | 0.0 | 0.00 | 0.00 | 0.00 | 92 | 3404.4 |
| 20260510071737 | 13 | 80 | 0.0 | 0.0 | 0.00 | 0.00 | 0.00 | 92 | 3404.6 |
| 20260510071234 | 13 | 98 | 0.0 | 0.0 | 0.00 | 0.00 | 0.00 | 92 | 3404.7 |
| 20260510070732 | 13 | 95 | 0.0 | 0.0 | 0.00 | 0.00 | 0.00 | 93 | 3404.6 |
| 20260510070229 | 13 | 133 | 0.0 | 0.0 | 0.00 | 0.00 | 0.00 | 93 | 3404.5 |
| 20260510065724 | 12 | 133 | 0.0 | 0.0 | 0.00 | 0.00 | 0.00 | 93 | 3404.3 |
| 20260510065221 | 12 | 134 | 0.0 | 0.0 | 0.00 | 0.00 | 0.00 | 93 | 3404.5 |
| 20260510064717 | 12 | 133 | 0.0 | 0.0 | 0.00 | 0.00 | 0.00 | 94 | 3404.7 |
| 20260510064215 | 13 | 134 | 0.0 | 0.0 | 0.00 | 0.00 | 0.00 | 93 | 3404.4 |
| 20260510063711 | 13 | 133 | 0.0 | 0.0 | 0.00 | 0.00 | 0.00 | 94 | 3404.7 |
| 20260510063207 | 13 | 133 | 0.0 | 0.0 | 0.00 | 0.00 | 0.00 | 94 | 3404.5 |
| 20260510062704 | 13 | 133 | 0.0 | 0.0 | 0.00 | 0.00 | 0.00 | 94 | 3404.7 |
| 20260510062200 | 13 | 133 | 0.0 | 0.0 | 0.00 | 0.00 | 0.00 | 94 | 3404.5 |
| 20260510061655 | 13 | 133 | 0.0 | 0.0 | 0.00 | 0.00 | 0.00 | 93 | 3404.7 |
| 20260510061153 | 13 | 133 | 0.0 | 0.0 | 0.00 | 0.00 | 0.00 | 93 | 3404.6 |
| 20260510060649 | 13 | 133 | 0.0 | 0.0 | 0.00 | 0.00 | 0.00 | 93 | 3404.5 |
| 20260510060146 | 13 | 133 | 0.0 | 0.0 | 0.00 | 0.00 | 0.00 | 93 | 3404.7 |
| 20260510055642 | 13 | 133 | 0.0 | 0.0 | 0.00 | 0.00 | 0.00 | 93 | 3404.6 |
| 20260510055140 | 13 | 134 | 0.0 | 0.0 | 0.00 | 0.00 | 0.00 | 93 | 3404.8 |
| 20260510054635 | 13 | 133 | 0.0 | 0.0 | 0.00 | 0.00 | 0.00 | 93 | 3404.7 |
| 20260510054131 | 13 | 133 | 0.0 | 0.0 | 0.00 | 0.00 | 0.00 | 93 | 3404.6 |
| 20260510053630 | 13 | 133 | 0.0 | 0.0 | 0.00 | 0.00 | 0.00 | 93 | 3404.8 |
| 20260510053127 | 13 | 133 | 0.0 | 0.0 | 0.00 | 0.00 | 0.00 | 93 | 3404.5 |
| 20260510052624 | 13 | 133 | 0.0 | 0.0 | 0.00 | 0.00 | 0.00 | 93 | 3404.9 |
| 20260510052120 | 13 | 133 | 0.0 | 0.0 | 0.00 | 0.00 | 0.00 | 92 | 3404.8 |
| 20260510051615 | 13 | 133 | 0.0 | 0.0 | 0.00 | 0.00 | 0.00 | 92 | 3404.5 |
| 20260510051113 | 13 | 133 | 0.0 | 0.0 | 0.00 | 0.00 | 0.00 | 92 | 3404.7 |
| 20260510050610 | 13 | 133 | 0.0 | 0.0 | 0.00 | 0.00 | 0.00 | 92 | 3404.5 |
| 20260510050106 | 13 | 133 | 0.0 | 0.0 | 0.00 | 0.00 | 0.00 | 92 | 3404.6 |
| 20260510045603 | 13 | 133 | 0.0 | 0.0 | 0.00 | 0.00 | 0.00 | 92 | 3404.8 |
| 20260510045059 | 13 | 133 | 0.0 | 0.0 | 0.00 | 0.00 | 0.00 | 91 | 3404.6 |
| 20260510044556 | 13 | 133 | 0.0 | 0.0 | 0.00 | 0.00 | 0.00 | 91 | 3404.6 |
| 20260510044054 | 14 | 133 | 0.0 | 0.0 | 0.00 | 0.00 | 0.00 | 91 | 3404.7 |
| 20260510043549 | 14 | 133 | 0.0 | 0.0 | 0.00 | 0.00 | 0.00 | 91 | 3404.7 |
| 20260510043045 | 14 | 133 | 0.0 | 0.0 | 0.00 | 0.00 | 0.00 | 90 | 3404.6 |
| 20260510042544 | 14 | 133 | 0.0 | 0.0 | 0.00 | 0.00 | 0.00 | 90 | 3404.7 |
| 20260510042040 | 15 | 133 | 0.0 | 0.0 | 0.00 | 0.00 | 0.00 | 89 | 3404.5 |
| 20260510041537 | 15 | 133 | 0.0 | 0.0 | 0.00 | 0.00 | 0.00 | 89 | 3404.6 |
| 20260510041034 | 15 | 133 | 0.0 | 0.0 | 0.00 | 0.00 | 0.00 | 89 | 3404.8 |
| 20260510040531 | 15 | 133 | 0.0 | 0.0 | 0.00 | 0.00 | 0.00 | 89 | 3404.7 |
| 20260510040027 | 15 | 133 | 0.0 | 0.0 | 0.00 | 0.00 | 0.00 | 88 | 3404.5 |
| 20260510035523 | 15 | 133 | 0.0 | 0.0 | 0.00 | 0.00 | 0.00 | 88 | 3404.5 |
| 20260510035022 | 15 | 133 | 0.0 | 0.0 | 0.00 | 0.00 | 0.00 | 88 | 3404.5 |
| 20260510034522 | 15 | 133 | 0.0 | 0.0 | 0.00 | 0.00 | 0.00 | 87 | 3404.4 |
| 20260510034017 | 15 | 133 | 0.0 | 0.0 | 0.00 | 0.00 | 0.00 | 87 | 3404.5 |
| 20260510033514 | 15 | 133 | 0.0 | 0.0 | 0.00 | 0.00 | 0.00 | 87 | 3404.7 |
| 20260510033012 | 15 | 133 | 0.0 | 0.0 | 0.00 | 0.00 | 0.00 | 86 | 3404.7 |
| 20260510032508 | 15 | 133 | 0.0 | 0.0 | 0.00 | 0.00 | 0.00 | 86 | 3404.8 |
| 20260510032008 | 15 | 133 | 0.0 | 0.0 | 0.00 | 0.00 | 0.00 | 85 | 3404.8 |
| 20260510031504 | 15 | 133 | 0.0 | 0.0 | 0.00 | 0.00 | 0.00 | 85 | 3404.8 |
| 20260510031000 | 16 | 133 | 0.0 | 0.0 | 0.00 | 0.00 | 0.00 | 84 | 3404.6 |
| 20260510030455 | 16 | 133 | 0.0 | 0.0 | 0.00 | 0.00 | 0.00 | 84 | 3404.7 |
| 20260510025953 | 16 | 133 | 0.0 | 0.0 | 0.00 | 0.00 | 0.00 | 84 | 3404.7 |
| 20260510025450 | 16 | 133 | 0.0 | 0.0 | 0.00 | 0.00 | 0.00 | 84 | 3404.8 |
| 20260510024948 | 16 | 133 | 0.0 | 0.0 | 0.00 | 0.00 | 0.00 | 83 | 3404.6 |
| 20260510024444 | 16 | 133 | 0.0 | 0.0 | 0.00 | 0.00 | 0.00 | 83 | 3404.7 |
| 20260510023940 | 16 | 133 | 0.0 | 0.0 | 0.00 | 0.00 | 0.00 | 82 | 3404.7 |
| 20260510023436 | 16 | 134 | 0.0 | 0.0 | 0.00 | 0.00 | 0.00 | 81 | 3404.5 |
| 20260510022934 | 16 | 133 | 0.0 | 0.0 | 0.00 | 0.00 | 0.00 | 80 | 3404.3 |
| 20260510022433 | 16 | 133 | 0.0 | 0.0 | 0.00 | 0.00 | 0.00 | 79 | 3404.6 |
| 20260510021932 | 17 | 133 | 0.0 | 0.0 | 0.00 | 0.00 | 0.00 | 79 | 3404.3 |
| 20260510021430 | 17 | 134 | 0.0 | 0.0 | 0.00 | 0.00 | 0.00 | 79 | 3404.3 |
| 20260510020926 | 17 | 133 | 0.0 | 0.0 | 0.00 | 0.00 | 0.00 | 78 | 3404.4 |
| 20260510020421 | 17 | 133 | 0.0 | 0.0 | 0.00 | 0.00 | 0.00 | 77 | 3404.2 |
| 20260510015917 | 17 | 134 | 0.0 | 0.0 | 0.00 | 0.00 | 0.00 | 76 | 3404.1 |
| 20260510015413 | 17 | 133 | 0.0 | 0.0 | 0.00 | 0.00 | 0.00 | 76 | 3403.9 |
| 20260510014908 | 17 | 133 | 0.0 | 0.0 | 0.00 | 0.00 | 0.00 | 76 | 3403.9 |
| 20260510014406 | 18 | 133 | 0.0 | 0.0 | 0.00 | 0.00 | 0.00 | 75 | 3403.9 |
| 20260510013902 | 18 | 134 | 0.0 | 0.0 | 0.00 | 0.00 | 0.00 | 74 | 3403.7 |
| 20260510013357 | 18 | 134 | 0.0 | 0.0 | 0.00 | 0.00 | 0.00 | 74 | 3403.8 |
| 20260510012852 | 18 | 134 | 0.0 | 0.0 | 0.00 | 0.00 | 0.00 | 72 | 3403.3 |
| 20260510012347 | 19 | 133 | 0.0 | 0.0 | 0.00 | 0.00 | 0.00 | 72 | 3403.4 |
| 20260510011842 | 19 | 134 | 0.0 | 0.0 | 0.00 | 0.00 | 0.00 | 71 | 3403.4 |
| 20260510011338 | 20 | 134 | 0.0 | 0.0 | 0.00 | 0.00 | 0.00 | 72 | 3403.3 |
| 20260510010834 | 20 | 134 | 0.0 | 0.0 | 0.00 | 0.00 | 0.00 | 70 | 3403.4 |
| 20260510010332 | 20 | 134 | 0.0 | 0.0 | 0.00 | 0.00 | 0.00 | 66 | 3403.2 |
| 20260510005828 | 21 | 134 | 0.0 | 0.0 | 0.00 | 0.00 | 0.00 | 64 | 3403.2 |
| 20260510005325 | 21 | 134 | 0.0 | 0.0 | 0.00 | 0.00 | 0.00 | 64 | 3403.1 |
| 20260510004823 | 21 | 134 | 0.0 | 0.0 | 0.00 | 0.00 | 0.00 | 62 | 3403.2 |
| 20260510004320 | 21 | 134 | 0.0 | 0.0 | 0.00 | 0.00 | 0.00 | 62 | 3403.1 |
| 20260510003818 | 22 | 134 | 0.0 | 3.2 | 0.00 | 0.00 | 0.00 | 60 | 3403.0 |
| 20260510003314 | 22 | 134 | 0.0 | 0.0 | 0.00 | 0.00 | 0.00 | 61 | 3402.8 |
| 20260510002813 | 22 | 133 | 0.0 | 0.0 | 0.00 | 0.00 | 0.00 | 60 | 3402.8 |
| 20260510002310 | 22 | 133 | 0.0 | 3.2 | 0.00 | 0.00 | 0.00 | 60 | 3402.7 |
| 20260510001807 | 22 | 133 | 0.0 | 0.0 | 0.00 | 0.00 | 0.00 | 59 | 3402.6 |
| 20260510001305 | 23 | 134 | 0.0 | 0.0 | 0.00 | 0.00 | 0.00 | 57 | 3402.3 |
| 20260510000800 | 23 | 133 | 0.0 | 0.0 | 0.00 | 0.00 | 0.00 | 57 | 3402.7 |
| 20260510000258 | 23 | 133 | 0.0 | 0.0 | 0.00 | 0.00 | 0.00 | 57 | 3402.6 |
| 20260509235756 | 23 | 134 | 0.0 | 0.0 | 0.00 | 0.00 | 0.00 | 55 | 3402.3 |
| 20260509235252 | 24 | 125 | 0.0 | 0.0 | 0.00 | 0.00 | 0.00 | 54 | 3402.3 |
| 20260509234747 | 24 | 125 | 0.0 | 0.0 | 0.00 | 0.00 | 0.00 | 53 | 3402.3 |
| 20260509234244 | 24 | 125 | 0.0 | 0.0 | 0.00 | 0.00 | 0.00 | 53 | 3402.3 |
| 20260509233743 | 25 | 120 | 0.0 | 0.0 | 0.00 | 0.00 | 0.00 | 53 | 3402.1 |
| 20260509233240 | 25 | 114 | 0.0 | 0.0 | 0.00 | 0.00 | 0.00 | 53 | 3402.2 |
| 20260509232736 | 25 | 112 | 0.0 | 0.0 | 0.00 | 0.00 | 0.00 | 52 | 3402.4 |
| 20260509232233 | 25 | 122 | 0.0 | 0.0 | 0.00 | 0.00 | 0.00 | 51 | 3402.3 |
| 20260509231729 | 25 | 123 | 1.6 | 3.2 | 0.00 | 0.00 | 0.00 | 50 | 3402.3 |
| 20260509231227 | 26 | 126 | 0.0 | 0.0 | 0.00 | 0.00 | 0.00 | 48 | 3402.6 |
| 20260509230724 | 26 | 126 | 0.0 | 0.0 | 0.00 | 0.00 | 0.00 | 49 | 3402.3 |
| 20260509230221 | 27 | 118 | 1.6 | 3.2 | 0.00 | 0.00 | 0.00 | 46 | 3402.2 |
| 20260509225716 | 27 | 193 | 1.6 | 3.2 | 0.00 | 0.00 | 0.00 | 47 | 3402.4 |
| 20260509225212 | 27 | 193 | 1.6 | 3.2 | 0.00 | 0.00 | 0.00 | 46 | 3402.2 |
| 20260509224708 | 26 | 160 | 0.0 | 0.0 | 0.00 | 0.00 | 0.00 | 48 | 3402.1 |
| 20260509224205 | 26 | 160 | 3.2 | 3.2 | 0.00 | 0.00 | 0.00 | 47 | 3402.6 |
| 20260509223702 | 27 | 151 | 4.8 | 4.8 | 0.00 | 0.00 | 0.00 | 45 | 3402.3 |
| 20260509223159 | 27 | 241 | 3.2 | 4.8 | 0.00 | 0.00 | 0.00 | 44 | 3402.1 |
| 20260509222656 | 27 | 144 | 0.0 | 0.0 | 0.00 | 0.00 | 0.00 | 46 | 3402.1 |
| 20260509222152 | 27 | 148 | 0.0 | 0.0 | 0.00 | 0.00 | 0.00 | 44 | 3402.0 |
| 20260509221648 | 27 | 141 | 4.8 | 4.8 | 0.00 | 0.00 | 0.00 | 44 | 3402.1 |
| 20260509221143 | 27 | 150 | 0.0 | 3.2 | 0.00 | 0.00 | 0.00 | 44 | 3402.0 |
| 20260509220640 | 27 | 211 | 3.2 | 4.8 | 0.00 | 0.00 | 0.00 | 47 | 3402.2 |
| 20260509220136 | 27 | 348 | 3.2 | 4.8 | 0.00 | 0.00 | 0.00 | 46 | 3402.2 |
| 20260509215632 | 27 | 44 | 3.2 | 4.8 | 0.00 | 0.00 | 0.00 | 44 | 3402.1 |
| 20260509215129 | 27 | 224 | 1.6 | 3.2 | 0.00 | 0.00 | 0.00 | 45 | 3402.2 |
| 20260509214626 | 26 | 319 | 4.8 | 4.8 | 0.00 | 0.00 | 0.00 | 46 | 3402.1 |
| 20260509214123 | 26 | 65 | 0.0 | 3.2 | 0.00 | 0.00 | 0.00 | 48 | 3402.1 |
| 20260509213619 | 26 | 141 | 0.0 | 0.0 | 0.00 | 0.00 | 0.00 | 46 | 3402.0 |
| 20260509213115 | 27 | 292 | 6.4 | 8.0 | 0.00 | 0.00 | 0.00 | 44 | 3401.9 |
| 20260509212613 | 27 | 287 | 0.0 | 3.2 | 0.00 | 0.00 | 0.00 | 44 | 3402.0 |
| 20260509212110 | 27 | 228 | 0.0 | 0.0 | 0.00 | 0.00 | 0.00 | 50 | 3401.9 |
| 20260509211606 | 26 | 88 | 1.6 | 3.2 | 0.00 | 0.00 | 0.00 | 47 | 3402.1 |
| 20260509211103 | 26 | 354 | 8.0 | 11.3 | 0.00 | 0.00 | 0.00 | 46 | 3401.8 |
| 20260509210559 | 26 | 9 | 3.2 | 3.2 | 0.00 | 0.00 | 0.00 | 48 | 3401.9 |
| 20260509210056 | 26 | 311 | 4.8 | 8.0 | 0.00 | 0.00 | 0.00 | 50 | 3402.1 |
| 20260509205550 | 25 | 321 | 8.0 | 11.3 | 0.00 | 0.00 | 0.00 | 49 | 3402.2 |
| 20260509205045 | 25 | 173 | 3.2 | 4.8 | 0.00 | 0.00 | 0.00 | 53 | 3402.1 |
| 20260509204542 | 25 | 15 | 1.6 | 3.2 | 0.00 | 0.00 | 0.00 | 52 | 3402.0 |
| 20260509204038 | 25 | 125 | 1.6 | 3.2 | 0.00 | 0.00 | 0.00 | 54 | 3402.2 |
| 20260509203534 | 25 | 272 | 3.2 | 4.8 | 0.00 | 0.00 | 0.00 | 53 | 3402.3 |
| 20260509203033 | 25 | 26 | 3.2 | 4.8 | 0.00 | 0.00 | 0.00 | 54 | 3402.6 |
| 20260509202527 | 25 | 164 | 3.2 | 4.8 | 0.00 | 0.00 | 0.00 | 57 | 3402.6 |
| 20260509202023 | 25 | 259 | 6.4 | 8.0 | 0.00 | 0.00 | 0.00 | 55 | 3402.7 |
| 20260509201518 | 25 | 261 | 8.0 | 11.3 | 0.00 | 0.00 | 0.00 | 55 | 3402.7 |
| 20260509201016 | 25 | 166 | 0.0 | 3.2 | 0.00 | 0.00 | 0.00 | 56 | 3402.7 |
| 20260509200510 | 25 | 248 | 4.8 | 8.0 | 0.00 | 0.00 | 0.00 | 56 | 3402.8 |
| 20260509200007 | 25 | 260 | 6.4 | 8.0 | 0.00 | 0.00 | 0.00 | 57 | 3403.0 |
| 20260509195502 | 25 | 265 | 1.6 | 3.2 | 0.00 | 0.00 | 0.00 | 55 | 3402.6 |
| 20260509195001 | 25 | 20 | 4.8 | 4.8 | 0.00 | 0.00 | 0.00 | 56 | 3402.8 |
| 20260509194457 | 25 | 133 | 4.8 | 4.8 | 0.00 | 0.00 | 0.00 | 56 | 3402.9 |
| 20260509193955 | 26 | 95 | 4.8 | 4.8 | 0.00 | 0.00 | 0.00 | 54 | 3403.0 |
| 20260509193454 | 25 | 159 | 0.0 | 0.0 | 0.00 | 0.00 | 0.00 | 57 | 3402.9 |